| time (UTC) | temp F | wind direction | speed knots | gust knots | rain 1hr in | rain 24hr in | rain mn in | humidity % | barometer mb |
| 20260507000943 | 42 | 314 | 0.0 | 0.0 | 0.00 | 0.03 | 0.03 | 99 | 1011.7 |
| 20260507000439 | 42 | 317 | 0.0 | 0.0 | 0.00 | 0.03 | 0.03 | 99 | 1011.7 |
| 20260506235935 | 42 | 326 | 0.0 | 0.0 | 0.00 | 0.03 | 0.03 | 99 | 1011.6 |
| 20260506235432 | 42 | 307 | 0.0 | 0.0 | 0.00 | 0.03 | 0.03 | 99 | 1011.4 |
| 20260506234927 | 42 | 307 | 0.0 | 0.0 | 0.00 | 0.03 | 0.03 | 99 | 1011.6 |
| 20260506234426 | 42 | 307 | 0.0 | 0.0 | 0.00 | 0.03 | 0.03 | 99 | 1011.7 |
| 20260506233923 | 42 | 307 | 0.0 | 0.0 | 0.00 | 0.03 | 0.03 | 99 | 1011.3 |
| 20260506233419 | 42 | 307 | 0.0 | 0.0 | 0.00 | 0.03 | 0.03 | 99 | 1011.3 |
| 20260506232916 | 42 | 298 | 0.0 | 0.0 | 0.00 | 0.03 | 0.03 | 99 | 1011.2 |
| 20260506232412 | 42 | 297 | 0.0 | 0.0 | 0.00 | 0.03 | 0.03 | 99 | 1010.9 |
| 20260506231908 | 42 | 329 | 0.0 | 0.0 | 0.00 | 0.03 | 0.03 | 99 | 1010.7 |
| 20260506231406 | 42 | 352 | 0.0 | 0.0 | 0.00 | 0.03 | 0.03 | 99 | 1010.6 |
| 20260506230903 | 42 | 25 | 0.9 | 1.7 | 0.00 | 0.03 | 0.03 | 99 | 1010.5 |
| 20260506230359 | 42 | 345 | 0.9 | 1.7 | 0.00 | 0.03 | 0.03 | 99 | 1010.7 |
| 20260506225856 | 42 | 341 | 0.9 | 0.9 | 0.00 | 0.03 | 0.03 | 99 | 1010.5 |
| 20260506225353 | 42 | 351 | 0.0 | 0.0 | 0.00 | 0.03 | 0.03 | 99 | 1010.5 |
| 20260506224850 | 42 | 351 | 0.0 | 0.0 | 0.00 | 0.03 | 0.03 | 99 | 1010.6 |
| 20260506224348 | 42 | 347 | 0.0 | 0.0 | 0.00 | 0.03 | 0.03 | 99 | 1010.6 |
| 20260506223844 | 42 | 337 | 0.0 | 0.0 | 0.00 | 0.03 | 0.03 | 99 | 1011.1 |
| 20260506223339 | 42 | 301 | 0.0 | 0.0 | 0.00 | 0.03 | 0.03 | 99 | 1010.8 |
| 20260506222836 | 42 | 346 | 0.0 | 0.0 | 0.00 | 0.03 | 0.03 | 99 | 1010.8 |
| 20260506222332 | 43 | 334 | 0.0 | 0.0 | 0.00 | 0.03 | 0.03 | 99 | 1010.7 |
| 20260506221830 | 43 | 351 | 0.9 | 1.7 | 0.00 | 0.03 | 0.03 | 99 | 1010.7 |
| 20260506221327 | 42 | 23 | 0.9 | 1.7 | 0.00 | 0.03 | 0.03 | 99 | 1010.8 |
| 20260506220825 | 43 | 10 | 1.7 | 1.7 | 0.00 | 0.03 | 0.03 | 99 | 1010.7 |
| 20260506220320 | 42 | 359 | 1.7 | 1.7 | 0.00 | 0.03 | 0.03 | 99 | 1010.6 |
| 20260506215817 | 42 | 44 | 0.9 | 1.7 | 0.00 | 0.03 | 0.03 | 99 | 1010.5 |
| 20260506215313 | 43 | 4 | 0.0 | 0.0 | 0.00 | 0.03 | 0.03 | 99 | 1010.6 |
| 20260506214809 | 43 | 30 | 2.6 | 2.6 | 0.00 | 0.03 | 0.03 | 99 | 1010.6 |
| 20260506214306 | 43 | 14 | 0.9 | 0.9 | 0.00 | 0.03 | 0.03 | 99 | 1011.1 |
| 20260506213804 | 43 | 348 | 0.9 | 1.7 | 0.00 | 0.03 | 0.03 | 99 | 1010.4 |
| 20260506213300 | 42 | 34 | 2.6 | 2.6 | 0.00 | 0.03 | 0.03 | 99 | 1010.5 |
| 20260506212758 | 43 | 35 | 0.0 | 0.0 | 0.00 | 0.03 | 0.03 | 99 | 1010.5 |
| 20260506212254 | 43 | 26 | 0.9 | 0.9 | 0.00 | 0.03 | 0.03 | 99 | 1010.5 |
| 20260506211749 | 43 | 27 | 2.6 | 4.3 | 0.00 | 0.03 | 0.03 | 99 | 1010.3 |
| 20260506211245 | 43 | 335 | 0.9 | 1.7 | 0.00 | 0.03 | 0.03 | 99 | 1010.2 |
| 20260506210743 | 43 | 352 | 1.7 | 2.6 | 0.00 | 0.03 | 0.03 | 99 | 1010.3 |
| 20260506210239 | 43 | 38 | 0.9 | 1.7 | 0.00 | 0.03 | 0.03 | 99 | 1010.4 |
| 20260506205736 | 43 | 343 | 1.7 | 2.6 | 0.00 | 0.03 | 0.03 | 99 | 1010.2 |
| 20260506205232 | 43 | 17 | 3.5 | 5.2 | 0.00 | 0.03 | 0.03 | 99 | 1010.0 |
| 20260506204729 | 43 | 31 | 2.6 | 2.6 | 0.00 | 0.03 | 0.03 | 99 | 1010.1 |
| 20260506204226 | 43 | 5 | 2.6 | 5.2 | 0.00 | 0.03 | 0.03 | 99 | 1009.8 |
| 20260506203724 | 44 | 349 | 2.6 | 2.6 | 0.00 | 0.03 | 0.03 | 99 | 1009.8 |
| 20260506203215 | 43 | 38 | 2.6 | 2.6 | 0.00 | 0.03 | 0.03 | 99 | 1010.0 |
| 20260506202713 | 43 | 35 | 0.0 | 0.9 | 0.00 | 0.03 | 0.03 | 99 | 1009.8 |
| 20260506202209 | 43 | 350 | 0.9 | 1.7 | 0.00 | 0.03 | 0.03 | 99 | 1009.7 |
| 20260506201706 | 43 | 45 | 2.6 | 2.6 | 0.00 | 0.03 | 0.03 | 99 | 1009.5 |
| 20260506201203 | 43 | 3 | 1.7 | 1.7 | 0.00 | 0.03 | 0.03 | 99 | 1009.4 |
| 20260506200659 | 43 | 0 | 1.7 | 1.7 | 0.00 | 0.03 | 0.03 | 99 | 1009.5 |
| 20260506200156 | 43 | 11 | 1.7 | 1.7 | 0.00 | 0.03 | 0.03 | 99 | 1009.4 |
| 20260506195653 | 43 | 355 | 1.7 | 1.7 | 0.00 | 0.03 | 0.03 | 99 | 1009.5 |
| 20260506195149 | 44 | 355 | 1.7 | 1.7 | 0.00 | 0.03 | 0.03 | 99 | 1009.5 |
| 20260506194647 | 44 | 348 | 0.0 | 0.0 | 0.00 | 0.03 | 0.03 | 99 | 1009.3 |
| 20260506194143 | 44 | 60 | 1.7 | 2.6 | 0.00 | 0.03 | 0.03 | 99 | 1009.5 |
| 20260506193641 | 44 | 319 | 1.7 | 4.3 | 0.00 | 0.03 | 0.03 | 99 | 1009.4 |
| 20260506193138 | 44 | 15 | 0.9 | 1.7 | 0.00 | 0.03 | 0.03 | 99 | 1009.3 |
| 20260506192634 | 44 | 333 | 0.9 | 0.9 | 0.00 | 0.03 | 0.03 | 99 | 1009.1 |
| 20260506192130 | 44 | 340 | 3.5 | 5.2 | 0.00 | 0.03 | 0.03 | 99 | 1009.3 |
| 20260506191627 | 44 | 23 | 1.7 | 2.6 | 0.00 | 0.03 | 0.03 | 99 | 1009.2 |
| 20260506191123 | 44 | 343 | 2.6 | 2.6 | 0.00 | 0.03 | 0.03 | 99 | 1009.3 |
| 20260506190621 | 44 | 342 | 1.7 | 1.7 | 0.00 | 0.03 | 0.03 | 99 | 1009.3 |
| 20260506190118 | 44 | 45 | 1.7 | 1.7 | 0.00 | 0.03 | 0.03 | 99 | 1009.2 |
| 20260506185615 | 44 | 12 | 1.7 | 1.7 | 0.00 | 0.03 | 0.03 | 99 | 1009.3 |
| 20260506185111 | 45 | 31 | 2.6 | 4.3 | 0.00 | 0.03 | 0.03 | 99 | 1009.0 |
| 20260506184609 | 45 | 322 | 2.6 | 2.6 | 0.00 | 0.03 | 0.03 | 99 | 1009.2 |
| 20260506184106 | 45 | 323 | 0.9 | 2.6 | 0.00 | 0.03 | 0.03 | 99 | 1008.8 |
| 20260506183602 | 45 | 3 | 0.0 | 0.9 | 0.00 | 0.03 | 0.03 | 99 | 1008.8 |
| 20260506183058 | 45 | 46 | 0.9 | 1.7 | 0.00 | 0.03 | 0.03 | 99 | 1008.5 |
| 20260506182556 | 45 | 21 | 0.9 | 1.7 | 0.00 | 0.03 | 0.03 | 99 | 1008.8 |
| 20260506182053 | 45 | 356 | 0.0 | 0.9 | 0.00 | 0.03 | 0.03 | 99 | 1008.7 |
| 20260506181551 | 45 | 14 | 3.5 | 4.3 | 0.00 | 0.03 | 0.03 | 99 | 1008.8 |
| 20260506181047 | 45 | 13 | 0.9 | 0.9 | 0.00 | 0.03 | 0.03 | 99 | 1008.7 |
| 20260506180544 | 45 | 345 | 0.0 | 0.9 | 0.00 | 0.03 | 0.03 | 99 | 1008.5 |
| 20260506180041 | 44 | 337 | 2.6 | 2.6 | 0.00 | 0.03 | 0.03 | 99 | 1008.6 |
| 20260506175537 | 44 | 354 | 2.6 | 2.6 | 0.00 | 0.03 | 0.03 | 99 | 1008.6 |
| 20260506175033 | 44 | 339 | 0.9 | 1.7 | 0.00 | 0.03 | 0.03 | 99 | 1008.5 |
| 20260506174532 | 44 | 348 | 0.0 | 0.0 | 0.00 | 0.03 | 0.03 | 99 | 1008.4 |
| 20260506174028 | 44 | 336 | 2.6 | 4.3 | 0.00 | 0.03 | 0.03 | 99 | 1008.3 |
| 20260506173526 | 44 | 325 | 1.7 | 1.7 | 0.00 | 0.03 | 0.03 | 99 | 1008.3 |
| 20260506173022 | 44 | 1 | 1.7 | 1.7 | 0.00 | 0.03 | 0.03 | 99 | 1008.5 |
| 20260506172520 | 44 | 45 | 0.9 | 1.7 | 0.00 | 0.03 | 0.03 | 99 | 1008.4 |
| 20260506172016 | 44 | 339 | 0.0 | 0.0 | 0.05 | 0.03 | 0.03 | 99 | 1008.6 |
| 20260506171513 | 44 | 18 | 0.0 | 0.9 | 0.05 | 0.03 | 0.03 | 99 | 1008.6 |
| 20260506171010 | 44 | 346 | 0.0 | 0.9 | 0.05 | 0.03 | 0.03 | 99 | 1008.4 |
| 20260506170508 | 43 | 344 | 2.6 | 2.6 | 0.00 | 0.02 | 0.02 | 99 | 1008.4 |
| 20260506170000 | 43 | 22 | 0.9 | 0.9 | 0.00 | 0.02 | 0.02 | 99 | 1008.4 |
| 20260506165458 | 43 | 33 | 2.6 | 4.3 | 0.00 | 0.02 | 0.02 | 99 | 1008.3 |
| 20260506164954 | 43 | 3 | 1.7 | 2.6 | 0.00 | 0.02 | 0.02 | 99 | 1008.1 |
| 20260506164451 | 43 | 26 | 1.7 | 1.7 | 0.00 | 0.02 | 0.02 | 99 | 1008.4 |
| 20260506163948 | 44 | 6 | 0.0 | 0.0 | 0.00 | 0.02 | 0.02 | 99 | 1008.5 |
| 20260506163443 | 44 | 35 | 1.7 | 2.6 | 0.00 | 0.02 | 0.02 | 99 | 1008.6 |
| 20260506162938 | 43 | 17 | 2.6 | 2.6 | 0.00 | 0.02 | 0.02 | 99 | 1008.6 |
| 20260506162436 | 44 | 32 | 1.7 | 2.6 | 0.00 | 0.02 | 0.02 | 99 | 1008.3 |
| 20260506161928 | 43 | 357 | 0.9 | 0.9 | 0.00 | 0.02 | 0.02 | 99 | 1008.5 |
| 20260506161426 | 43 | 34 | 2.6 | 4.3 | 0.00 | 0.02 | 0.02 | 99 | 1008.3 |
| 20260506160923 | 44 | 25 | 2.6 | 2.6 | 0.00 | 0.02 | 0.02 | 99 | 1008.6 |
| 20260506160420 | 43 | 351 | 0.9 | 1.7 | 0.00 | 0.02 | 0.02 | 99 | 1008.6 |
| 20260506155917 | 44 | 5 | 0.9 | 0.9 | 0.00 | 0.02 | 0.02 | 99 | 1008.4 |
| 20260506155414 | 43 | 22 | 0.9 | 0.9 | 0.00 | 0.02 | 0.02 | 99 | 1008.6 |
| 20260506153537 | 43 | 24 | 1.7 | 2.6 | 0.00 | 0.02 | 0.02 | 99 | 1008.6 |
| 20260506153034 | 43 | 31 | 1.7 | 1.7 | 0.00 | 0.02 | 0.02 | 99 | 1008.6 |
| 20260506152531 | 43 | 340 | 0.0 | 0.9 | 0.00 | 0.02 | 0.02 | 99 | 1008.7 |
| 20260506152029 | 43 | 340 | 0.9 | 0.9 | 0.00 | 0.02 | 0.02 | 99 | 1008.5 |
| 20260506151527 | 43 | 0 | 0.0 | 0.9 | 0.00 | 0.02 | 0.02 | 99 | 1008.1 |
| 20260506151024 | 43 | 350 | 0.9 | 1.7 | 0.00 | 0.02 | 0.02 | 99 | 1008.3 |
| 20260506150520 | 43 | 32 | 1.7 | 1.7 | 0.00 | 0.02 | 0.02 | 99 | 1008.1 |
| 20260506150017 | 43 | 31 | 0.0 | 0.9 | 0.00 | 0.02 | 0.02 | 99 | 1008.3 |
| 20260506145514 | 43 | 346 | 0.9 | 0.9 | 0.00 | 0.02 | 0.02 | 99 | 1008.5 |
| 20260506145011 | 42 | 339 | 2.6 | 2.6 | 0.00 | 0.02 | 0.02 | 99 | 1008.5 |
| 20260506144508 | 43 | 13 | 0.9 | 0.9 | 0.00 | 0.02 | 0.02 | 99 | 1008.4 |
| 20260506144005 | 43 | 44 | 3.5 | 5.2 | 0.00 | 0.02 | 0.02 | 99 | 1008.4 |
| 20260506143502 | 43 | 41 | 1.7 | 1.7 | 0.00 | 0.02 | 0.02 | 99 | 1008.4 |
| 20260506143001 | 43 | 34 | 0.9 | 1.7 | 0.00 | 0.02 | 0.02 | 99 | 1008.4 |
| 20260506142458 | 43 | 22 | 2.6 | 2.6 | 0.00 | 0.02 | 0.02 | 99 | 1008.4 |
| 20260506141956 | 43 | 36 | 4.3 | 6.1 | 0.07 | 0.02 | 0.02 | 99 | 1008.1 |
| 20260506141454 | 43 | 350 | 0.9 | 0.9 | 0.07 | 0.02 | 0.02 | 99 | 1008.5 |
| 20260506140952 | 43 | 14 | 0.9 | 1.7 | 0.00 | 0.01 | 0.01 | 99 | 1008.3 |
| 20260506140449 | 43 | 340 | 1.7 | 1.7 | 0.00 | 0.01 | 0.01 | 99 | 1008.5 |
| 20260506135945 | 43 | 349 | 1.7 | 2.6 | 0.00 | 0.01 | 0.01 | 99 | 1008.4 |
| 20260506135443 | 43 | 350 | 0.9 | 0.9 | 0.00 | 0.01 | 0.01 | 99 | 1008.6 |
| 20260506134938 | 43 | 350 | 0.9 | 2.6 | 0.00 | 0.01 | 0.01 | 99 | 1008.6 |
| 20260506134435 | 43 | 346 | 1.7 | 2.6 | 0.00 | 0.01 | 0.01 | 99 | 1008.4 |
| 20260506133932 | 43 | 344 | 1.7 | 1.7 | 0.00 | 0.01 | 0.01 | 99 | 1008.6 |
| 20260506133429 | 43 | 349 | 0.0 | 0.0 | 0.00 | 0.01 | 0.01 | 99 | 1008.5 |
| 20260506132926 | 43 | 350 | 0.9 | 1.7 | 0.00 | 0.01 | 0.01 | 99 | 1008.6 |
| 20260506132423 | 43 | 344 | 1.7 | 1.7 | 0.00 | 0.01 | 0.01 | 99 | 1008.6 |
| 20260506131920 | 43 | 351 | 0.9 | 0.9 | 0.00 | 0.01 | 0.01 | 99 | 1008.7 |
| 20260506131416 | 43 | 330 | 0.0 | 0.9 | 0.00 | 0.01 | 0.01 | 99 | 1008.6 |
| 20260506130914 | 43 | 2 | 0.0 | 0.9 | 0.00 | 0.01 | 0.01 | 99 | 1008.7 |
| 20260506130410 | 43 | 344 | 0.0 | 0.0 | 0.00 | 0.01 | 0.01 | 99 | 1008.5 |
| 20260506125908 | 43 | 357 | 0.9 | 0.9 | 0.00 | 0.01 | 0.01 | 99 | 1008.5 |
| 20260506125406 | 43 | 350 | 2.6 | 4.3 | 0.00 | 0.01 | 0.01 | 99 | 1008.6 |
| 20260506124904 | 43 | 333 | 0.9 | 1.7 | 0.00 | 0.01 | 0.01 | 99 | 1008.5 |
| 20260506124401 | 43 | 342 | 1.7 | 1.7 | 0.00 | 0.01 | 0.01 | 99 | 1008.6 |
| 20260506123859 | 43 | 349 | 2.6 | 2.6 | 0.00 | 0.01 | 0.01 | 99 | 1008.6 |
| 20260506123357 | 43 | 359 | 0.0 | 0.0 | 0.00 | 0.01 | 0.01 | 99 | 1008.4 |
| 20260506122854 | 43 | 14 | 0.0 | 0.0 | 0.00 | 0.01 | 0.01 | 99 | 1008.5 |
| 20260506122350 | 43 | 351 | 0.9 | 0.9 | 0.00 | 0.01 | 0.01 | 99 | 1008.3 |
| 20260506121849 | 43 | 355 | 0.0 | 0.0 | 0.05 | 0.01 | 0.01 | 99 | 1008.5 |
| 20260506121346 | 43 | 341 | 1.7 | 1.7 | 0.05 | 0.01 | 0.01 | 99 | 1008.6 |
| 20260506120842 | 42 | 352 | 0.9 | 1.7 | 0.00 | 0.00 | 0.00 | 99 | 1008.8 |
| 20260506120340 | 43 | 343 | 3.5 | 4.3 | 0.00 | 0.00 | 0.00 | 99 | 1008.7 |
| 20260506115837 | 42 | 348 | 2.6 | 2.6 | 0.00 | 0.00 | 0.00 | 99 | 1008.1 |
| 20260506115336 | 42 | 345 | 0.9 | 1.7 | 0.00 | 0.00 | 0.00 | 99 | 1008.7 |
| 20260506114833 | 42 | 319 | 1.7 | 1.7 | 0.00 | 0.00 | 0.00 | 99 | 1008.3 |
| 20260506114331 | 42 | 4 | 1.7 | 1.7 | 0.00 | 0.00 | 0.00 | 99 | 1008.5 |
| 20260506113829 | 43 | 335 | 6.1 | 7.0 | 0.00 | 0.00 | 0.00 | 99 | 1008.6 |
| 20260506113326 | 42 | 329 | 4.3 | 5.2 | 0.00 | 0.00 | 0.00 | 99 | 1008.4 |
| 20260506112823 | 42 | 341 | 5.2 | 6.1 | 0.00 | 0.00 | 0.00 | 99 | 1008.7 |
| 20260506112320 | 42 | 330 | 1.7 | 2.6 | 0.00 | 0.00 | 0.00 | 99 | 1008.3 |
| 20260506111818 | 42 | 343 | 0.9 | 1.7 | 0.00 | 0.00 | 0.00 | 99 | 1008.4 |
| 20260506111316 | 42 | 331 | 1.7 | 1.7 | 0.00 | 0.00 | 0.00 | 99 | 1008.6 |
| 20260506110813 | 43 | 343 | 1.7 | 2.6 | 0.00 | 0.00 | 0.00 | 99 | 1008.7 |
| 20260506110310 | 42 | 355 | 0.9 | 0.9 | 0.00 | 0.00 | 0.00 | 99 | 1008.8 |
| 20260506105806 | 42 | 344 | 0.0 | 0.0 | 0.00 | 0.00 | 0.00 | 99 | 1009.0 |
| 20260506105305 | 42 | 345 | 1.7 | 1.7 | 0.00 | 0.00 | 0.00 | 99 | 1008.8 |
| 20260506104801 | 42 | 320 | 0.0 | 0.0 | 0.00 | 0.00 | 0.00 | 99 | 1008.9 |
| 20260506104258 | 42 | 353 | 1.7 | 2.6 | 0.00 | 0.00 | 0.00 | 99 | 1008.7 |
| 20260506103756 | 42 | 346 | 2.6 | 2.6 | 0.00 | 0.00 | 0.00 | 99 | 1008.8 |
| 20260506103253 | 42 | 340 | 1.7 | 1.7 | 0.00 | 0.00 | 0.00 | 99 | 1008.8 |
| 20260506102750 | 42 | 331 | 2.6 | 2.6 | 0.00 | 0.00 | 0.00 | 99 | 1008.8 |
| 20260506102248 | 42 | 338 | 1.7 | 1.7 | 0.00 | 0.00 | 0.00 | 99 | 1008.7 |
| 20260506101745 | 42 | 350 | 2.6 | 2.6 | 0.00 | 0.00 | 0.00 | 99 | 1008.8 |
| 20260506101241 | 43 | 336 | 3.5 | 4.3 | 0.00 | 0.00 | 0.00 | 99 | 1008.6 |
| 20260506100739 | 43 | 346 | 2.6 | 4.3 | 0.00 | 0.00 | 0.00 | 99 | 1008.7 |
| 20260506100237 | 43 | 347 | 2.6 | 2.6 | 0.00 | 0.00 | 0.00 | 99 | 1009.1 |
| 20260506095736 | 43 | 31 | 2.6 | 4.3 | 0.00 | 0.00 | 0.00 | 99 | 1009.1 |
| 20260506095232 | 44 | 0 | 6.1 | 6.1 | 0.00 | 0.00 | 0.00 | 99 | 1008.9 |
| 20260506094729 | 44 | 16 | 1.7 | 1.7 | 0.00 | 0.00 | 0.00 | 99 | 1009.2 |
| 20260506094227 | 45 | 54 | 0.9 | 1.7 | 0.00 | 0.00 | 0.00 | 99 | 1008.9 |
| 20260506093726 | 45 | 14 | 0.0 | 0.9 | 0.00 | 0.00 | 0.00 | 99 | 1008.9 |
| 20260506093222 | 45 | 320 | 5.2 | 6.1 | 0.00 | 0.00 | 0.00 | 99 | 1009.1 |
| 20260506092720 | 45 | 340 | 0.0 | 0.9 | 0.00 | 0.00 | 0.00 | 99 | 1009.1 |
| 20260506092217 | 45 | 32 | 0.9 | 1.7 | 0.00 | 0.00 | 0.00 | 99 | 1009.1 |
| 20260506091715 | 45 | 357 | 2.6 | 2.6 | 0.00 | 0.00 | 0.00 | 99 | 1009.5 |
| 20260506091212 | 45 | 345 | 2.6 | 2.6 | 0.00 | 0.00 | 0.00 | 99 | 1009.1 |
| 20260506090710 | 45 | 348 | 6.1 | 7.8 | 0.00 | 0.00 | 0.00 | 99 | 1009.0 |
| 20260506090206 | 45 | 341 | 5.2 | 5.2 | 0.00 | 0.00 | 0.00 | 99 | 1009.0 |
| 20260506085704 | 45 | 28 | 2.6 | 4.3 | 0.00 | 0.00 | 0.00 | 99 | 1009.0 |
| 20260506085159 | 45 | 340 | 2.6 | 2.6 | 0.00 | 0.00 | 0.00 | 99 | 1008.9 |
| 20260506084656 | 45 | 352 | 4.3 | 5.2 | 0.00 | 0.00 | 0.00 | 99 | 1009.1 |
| 20260506084153 | 45 | 0 | 1.7 | 1.7 | 0.00 | 0.00 | 0.00 | 99 | 1009.2 |
| 20260506083650 | 45 | 17 | 3.5 | 4.3 | 0.00 | 0.00 | 0.00 | 99 | 1009.1 |
| 20260506083148 | 46 | 356 | 2.6 | 2.6 | 0.00 | 0.00 | 0.00 | 99 | 1009.1 |
| 20260506082644 | 46 | 342 | 2.6 | 2.6 | 0.00 | 0.00 | 0.00 | 99 | 1009.1 |
| 20260506082139 | 46 | 358 | 0.0 | 0.0 | 0.00 | 0.00 | 0.00 | 99 | 1008.8 |
| 20260506081638 | 46 | 357 | 0.9 | 0.9 | 0.00 | 0.00 | 0.00 | 99 | 1008.9 |
| 20260506081135 | 46 | 353 | 1.7 | 1.7 | 0.00 | 0.00 | 0.00 | 99 | 1009.1 |
| 20260506080633 | 46 | 350 | 0.9 | 1.7 | 0.00 | 0.00 | 0.00 | 99 | 1008.9 |
| 20260506080129 | 46 | 338 | 0.9 | 1.7 | 0.00 | 0.00 | 0.00 | 99 | 1008.7 |
| 20260506073113 | 46 | 11 | 0.9 | 0.9 | 0.00 | 0.00 | 0.00 | 99 | 1008.5 |
| 20260506072609 | 46 | 43 | 0.0 | 0.0 | 0.00 | 0.00 | 0.00 | 99 | 1008.8 |
| 20260506072108 | 47 | 35 | 3.5 | 5.2 | 0.00 | 0.00 | 0.00 | 99 | 1008.8 |
| 20260506071605 | 46 | 343 | 0.0 | 0.0 | 0.00 | 0.00 | 0.00 | 99 | 1008.9 |
| 20260506071102 | 46 | 180 | 0.0 | 0.0 | 0.00 | 0.00 | 0.00 | 99 | 1008.9 |
| 20260506070559 | 46 | 136 | 0.0 | 0.0 | 0.00 | 0.00 | 0.00 | 99 | 1008.8 |
| 20260506062033 | 46 | 222 | 0.0 | 0.0 | 0.00 | 0.00 | 0.00 | 99 | 1009.3 |
| 20260506061529 | 46 | 336 | 2.6 | 2.6 | 0.00 | 0.00 | 0.00 | 99 | 1009.9 |
| 20260506061027 | 47 | 49 | 2.6 | 4.3 | 0.00 | 0.00 | 0.00 | 99 | 1010.9 |
| 20260506060526 | 47 | 310 | 0.0 | 0.0 | 0.00 | 0.00 | 0.00 | 99 | 1010.0 |
| 20260506050954 | 46 | 335 | 0.0 | 0.0 | 0.00 | 0.00 | 0.00 | 99 | 1011.1 |
| 20260506050452 | 46 | 346 | 0.0 | 0.0 | 0.00 | 0.00 | 0.00 | 99 | 1010.9 |
| 20260506044942 | 46 | 347 | 0.0 | 1.7 | 0.00 | 0.00 | 0.00 | 98 | 1011.1 |
| 20260506044441 | 46 | 352 | 0.9 | 0.9 | 0.00 | 0.00 | 0.00 | 98 | 1010.6 |
| 20260506043937 | 46 | 15 | 0.0 | 0.0 | 0.00 | 0.00 | 0.00 | 98 | 1010.5 |
| 20260506043434 | 47 | 17 | 0.9 | 0.9 | 0.00 | 0.00 | 0.00 | 98 | 1010.7 |
| 20260506042932 | 47 | 344 | 1.7 | 1.7 | 0.00 | 0.00 | 0.00 | 98 | 1010.7 |
| 20260506042431 | 47 | 341 | 0.0 | 0.0 | 0.00 | 0.00 | 0.00 | 98 | 1010.5 |
| 20260506041929 | 47 | 35 | 1.7 | 1.7 | 0.00 | 0.00 | 0.00 | 98 | 1010.4 |
| 20260506041426 | 47 | 337 | 0.0 | 0.0 | 0.00 | 0.00 | 0.00 | 98 | 1010.5 |
| 20260506040923 | 47 | 335 | 0.9 | 1.7 | 0.00 | 0.00 | 0.00 | 98 | 1010.5 |
| 20260506040421 | 47 | 326 | 0.0 | 0.0 | 0.00 | 0.00 | 0.00 | 98 | 1010.6 |
| 20260506035917 | 46 | 323 | 0.0 | 0.0 | 0.00 | 0.01 | 0.01 | 98 | 1010.9 |
| 20260506035415 | 46 | 322 | 0.9 | 0.9 | 0.00 | 0.01 | 0.01 | 98 | 1010.9 |
| 20260506034911 | 46 | 346 | 0.9 | 0.9 | 0.00 | 0.01 | 0.01 | 98 | 1010.8 |
| 20260506034408 | 46 | 336 | 0.0 | 0.0 | 0.00 | 0.01 | 0.01 | 98 | 1010.7 |
| 20260506033905 | 46 | 336 | 0.9 | 0.9 | 0.00 | 0.01 | 0.01 | 98 | 1011.1 |
| 20260506033403 | 46 | 65 | 0.0 | 0.0 | 0.00 | 0.01 | 0.01 | 97 | 1011.2 |
| 20260506032859 | 46 | 44 | 0.0 | 0.0 | 0.00 | 0.01 | 0.01 | 97 | 1010.8 |
| 20260506032356 | 46 | 359 | 0.0 | 0.0 | 0.00 | 0.01 | 0.01 | 97 | 1010.8 |
| 20260506031853 | 46 | 334 | 0.0 | 0.0 | 0.00 | 0.01 | 0.01 | 97 | 1011.6 |
| 20260506031350 | 46 | 335 | 2.6 | 2.6 | 0.00 | 0.01 | 0.01 | 97 | 1011.4 |
| 20260506030848 | 46 | 332 | 0.0 | 0.0 | 0.00 | 0.01 | 0.01 | 97 | 1011.7 |
| 20260506030346 | 46 | 5 | 0.0 | 0.0 | 0.00 | 0.01 | 0.01 | 97 | 1011.5 |
| 20260506025842 | 46 | 322 | 0.9 | 0.9 | 0.00 | 0.01 | 0.01 | 97 | 1010.9 |
| 20260506025338 | 46 | 350 | 1.7 | 1.7 | 0.00 | 0.01 | 0.01 | 96 | 1011.6 |
| 20260506024836 | 47 | 0 | 0.9 | 0.9 | 0.00 | 0.01 | 0.01 | 96 | 1011.3 |
| 20260506024333 | 47 | 47 | 1.7 | 1.7 | 0.00 | 0.01 | 0.01 | 96 | 1011.4 |
| 20260506023829 | 47 | 336 | 0.0 | 0.0 | 0.00 | 0.01 | 0.01 | 96 | 1011.5 |
| 20260506023326 | 47 | 34 | 0.9 | 1.7 | 0.00 | 0.01 | 0.01 | 95 | 1011.3 |
| 20260506022822 | 47 | 325 | 0.9 | 1.7 | 0.00 | 0.01 | 0.01 | 95 | 1011.1 |
| 20260506022320 | 47 | 167 | 0.0 | 0.9 | 0.00 | 0.01 | 0.01 | 94 | 1011.8 |
| 20260506021818 | 47 | 31 | 3.5 | 5.2 | 0.00 | 0.01 | 0.01 | 94 | 1011.3 |
| 20260506021315 | 48 | 0 | 2.6 | 4.3 | 0.00 | 0.01 | 0.01 | 93 | 1011.2 |
| 20260506020811 | 48 | 32 | 1.7 | 2.6 | 0.00 | 0.01 | 0.01 | 92 | 1011.2 |
| 20260506020309 | 48 | 342 | 4.3 | 6.1 | 0.00 | 0.01 | 0.01 | 92 | 1011.1 |
| 20260506015807 | 48 | 351 | 2.6 | 2.6 | 0.00 | 0.01 | 0.01 | 91 | 1010.9 |
| 20260506015306 | 48 | 343 | 1.7 | 2.6 | 0.00 | 0.01 | 0.01 | 90 | 1010.6 |
| 20260506014801 | 49 | 28 | 0.9 | 1.7 | 0.00 | 0.01 | 0.01 | 89 | 1010.6 |
| 20260506014257 | 50 | 345 | 0.0 | 0.9 | 0.00 | 0.01 | 0.01 | 88 | 1010.7 |
| 20260506013754 | 50 | 357 | 2.6 | 4.3 | 0.00 | 0.01 | 0.01 | 87 | 1010.7 |
| 20260506013252 | 50 | 339 | 4.3 | 6.1 | 0.00 | 0.01 | 0.01 | 86 | 1010.6 |
| 20260506012748 | 51 | 353 | 4.3 | 6.1 | 0.00 | 0.01 | 0.01 | 86 | 1010.7 |
| 20260506012245 | 51 | 344 | 6.1 | 7.8 | 0.00 | 0.01 | 0.01 | 86 | 1010.3 |
| 20260506011742 | 51 | 338 | 3.5 | 5.2 | 0.00 | 0.01 | 0.01 | 85 | 1010.5 |
| 20260506011238 | 51 | 321 | 3.5 | 4.3 | 0.00 | 0.01 | 0.01 | 85 | 1010.3 |
| 20260506010737 | 52 | 347 | 3.5 | 4.3 | 0.00 | 0.01 | 0.01 | 86 | 1010.4 |
| 20260506010234 | 52 | 346 | 3.5 | 4.3 | 0.00 | 0.01 | 0.01 | 86 | 1010.5 |
| 20260506005731 | 52 | 330 | 0.9 | 1.7 | 0.00 | 0.01 | 0.01 | 87 | 1010.3 |
| 20260506005228 | 52 | 294 | 0.9 | 0.9 | 0.00 | 0.01 | 0.01 | 86 | 1010.8 |
| 20260506004724 | 52 | 349 | 1.7 | 1.7 | 0.00 | 0.01 | 0.01 | 86 | 1010.7 |
| 20260506004221 | 52 | 314 | 2.6 | 5.2 | 0.00 | 0.01 | 0.01 | 86 | 1010.6 |
| 20260506003717 | 52 | 318 | 0.9 | 0.9 | 0.00 | 0.01 | 0.01 | 89 | 1010.5 |
| 20260506003214 | 52 | 344 | 3.5 | 4.3 | 0.00 | 0.01 | 0.01 | 89 | 1009.9 |
| 20260506002710 | 53 | 319 | 0.9 | 0.9 | 0.00 | 0.01 | 0.01 | 89 | 1009.9 |
| 20260506002206 | 52 | 328 | 2.6 | 5.2 | 0.00 | 0.01 | 0.01 | 91 | 1010.2 |
| 20260506001702 | 53 | 336 | 1.7 | 1.7 | 0.00 | 0.01 | 0.01 | 92 | 1010.0 |